sat.trackr.live / text

‹ back to catalog

STARLINK-35122

NORAD 65510 · 2025-198U

PAYLOAD ACTIVE UNKNOWN

§ Identity

Operator
Country
US
Launch date
2025-09-05
Launch site
AFETR
Launch vehicle
Mass (kg)
RCS (m²)

Purposes: comms

External: N2YO · Heavens-Above · Gunter

§ Orbital elements

Epoch: 2026-05-24T18:39:27.340128Z

Period
93.85 min
Inclination
53.1592°
Eccentricity
0.0001024
Mean motion
15.34406465 rev/d
Perigee alt
462.0 km
Apogee alt
463.4 km
Semi-major
6,840.8 km
B*
6.3058e-4
RAAN
276.5733°
Arg perigee
77.7327°
Mean anomaly
282.3790°
Rev number
4,028

§ Raw data

STARLINK-351221 65510U 25198U   26144.77739977  .00020993  00000+0  63058-3 0  99922 65510  53.1592 276.5733 0001024  77.7327 282.3790 15.34406465 40280

JSON: /api/v1/satellites/65510 · /tle

For live sub-satellite position, see the globe view (requires WebGL).

§ Visibility from observer

Set your observer location to see the next 7 days of passes ≥ 10°. The values pass through the URL so the page stays shareable.

No JS? Fill the form by hand. The geolocation button needs JavaScript.